This demonstration page uses our WeatherBlox Daily Observations layout. Learn more.

Left ArrowRight Arrow

Hourly Observations for August 17, 2021

Temp ( °F °C ) Dew Point ( °F °C ) Humidity (%) Winds ( mph kmh ) Pressure ( in mb ) Visibility ( mi km ) Precip ( " mm )
12:59 am 00:59 Mostly Cloudy 78 25.6 74 23.3 87 87 ESE 5 7 30.14 1021 8 13 0.00 0.00
1:59 am 01:59 Partly Cloudy 78 25.6 74 23.3 87 87 SE 6 9 30.13 1020 8 13 0.00 0.00
2:59 am 02:59 Partly Cloudy 78 25.6 74 23.3 87 87 SSE 3 6 30.13 1020 8 13 0.00 0.00
3:59 am 03:59 Mostly Cloudy 78 25.6 74 23.3 87 87 SSE 5 7 30.12 1020 8 13 0.00 0.00
4:59 am 04:59 Partly Cloudy 77 25 74 23.3 90 90 SE 3 6 30.13 1020 7 11 0.00 0.00
5:59 am 05:59 Mostly Cloudy 77 25 74 23.3 90 90 SSE 3 6 30.14 1021 7 11 0.00 0.00
6:59 am 06:59 Mostly Cloudy with Mist and Fog 77 25 74 23.3 90 90 SE 3 6 30.15 1021 5 8 0.00 0.00
7:59 am 07:59 Partly Cloudy 80 26.7 76 24.4 87 87 SSE 6 9 30.16 1022 7 11 0.00 0.00
8:59 am 08:59 Mostly Cloudy 82 27.8 75 23.9 79 79 SSE 5 7 30.16 1022 9 14 0.00 0.00
9:59 am 09:59 Mostly Cloudy 85 29.4 74 23.3 70 70 SSW 6 9 30.16 1022 10 16 0.00 0.00
10:59 am 10:59 Mostly Cloudy 87 30.6 72 22.2 61 61 E 3 6 30.17 1022 10 16 0.00 0.00
11:59 am 11:59 Mostly Cloudy 85 29.4 75 23.9 72 72 NNE 7 11 30.17 1022 10 16 0.00 0.00
12:59 pm 12:59 Mostly Cloudy 86 30 74 23.3 67 67 NNE 7 11 30.16 1021 10 16 0.00 0.00
1:59 pm 13:59 Mostly Cloudy 87 30.6 73 22.8 63 63 NE 12 19 30.14 1021 10 16 0.00 0.00
2:59 pm 14:59 Mostly Cloudy 88 31.1 74 23.3 63 63 SE 9 15 30.14 1021 10 16 0.00 0.00
3:59 pm 15:59 Mostly Cloudy 88 31.1 74 23.3 63 63 SE 8 13 30.12 1020 10 16 0.00 0.00
4:59 pm 16:59 Mostly Cloudy 87 30.6 74 23.3 65 65 SE 8 13 30.11 1020 10 16 0.00 0.00
5:59 pm 17:59 Mostly Cloudy 85 29.4 74 23.3 70 70 SE 8 13 30.11 1020 10 16 0.00 0.00
6:59 pm 18:59 Mostly Cloudy 83 28.3 73 22.8 72 72 SE 10 17 30.11 1020 10 16 0.00 0.00
7:59 pm 19:59 Mostly Cloudy 82 27.8 73 22.8 74 74 SE 7 11 30.12 1020 10 16 0.00 0.00
8:59 pm 20:59 Mostly Cloudy 82 27.8 75 23.9 79 79 SE 6 9 30.13 1020 10 16 0.00 0.00
9:59 pm 21:59 Clear 81 27.2 75 23.9 82 82 SE 7 11 30.14 1021 10 16 0.00 0.00
10:59 pm 22:59 Mostly Cloudy 81 27.2 75 23.9 82 82 SSE 5 7 30.15 1021 10 16 0.00 0.00
11:59 pm 23:59 Cloudy 81 27.2 75 23.9 82 82 SE 5 7 30.16 1021 10 16 0.00 0.00

Powered by AerisWeather